Temperature
20 20 20 20 19 19 21 22 22 23 23 22 22 21 20 19 19 18 18 19 19 19 19 19 19 19 20 20 20 20 20 20 20 20 20 20 20 20 20 19 19 19 19 19 19 19 19 19 19
20 20 20 20 19 20 21 21 22 23 23 22 21 21 20 19 19 18 18 19 19 19 19 19 19 19 19 19 20 20 20 20 20 20 20 20 20 19 19 19 19 19 19 19 19 19 19 19 19
20 20 20 18 19 20 21 21 22 24 24 22 20 19 19 19 18 18 18 18 19 19 19 19 19 19 19 19 19 19 19 19 19 19 19 19 19 19 19 19 19 19 19 19 19 19 19 19 18
21 21 20 19 20 20 21 21 22 23 23 22 20 19 18 18 19 18 18 18 19 19 19 19 19 19 19 19 19 19 19 19 19 19 19 19 19 19 19 19 19 19 19 19 19 19 19 19 18
21 21 19 19 20 21 21 22 23 23 23 21 20 18 18 18 19 19 19 19 19 19 18 18 18 18 18 18 18 18 18 18 18 18 18 18 19 19 19 19 19 19 19 19 19 19 19 19 19
22 19 19 19 20 21 21 23 23 22 21 20 19 18 18 18 19 19 19 19 19 19 18 18 18 18 18 17 18 18 18 18 18 18 18 18 18 18 18 18 18 18 19 19 19 19 19 19 19
21 19 20 20 20 20 22 23 23 22 22 21 20 18 18 19 19 19 19 19 19 18 18 18 18 17 17 17 17 17 17 17 17 17 17 17 18 18 18 18 18 18 18 18 19 19 19 19 19
22 18 20 19 20 21 23 24 23 23 21 21 21 19 19 19 19 19 19 18 18 18 18 18 17 17 17 17 16 16 16 16 16 17 17 17 17 17 17 17 18 18 18 18 18 18 18 18 19
22 18 19 20 20 21 23 23 23 22 22 21 20 20 20 19 19 19 19 18 18 18 18 17 17 17 16 16 16 16 16 16 16 16 16 16 17 17 17 17 17 17 18 18 18 18 18 18 18
21 18 19 20 20 21 23 23 22 21 20 20 20 20 20 19 19 19 19 19 18 18 18 17 17 16 16 16 16 15 16 16 16 16 16 16 16 16 17 17 17 17 17 17 18 18 18 18 18
19 19 19 20 21 22 22 23 23 21 19 20 20 20 20 19 19 19 19 19 18 18 17 17 16 16 16 15 15 15 15 15 15 16 16 16 16 16 16 16 17 17 17 17 17 17 17 18 18
19 19 20 20 22 22 23 22 22 21 21 21 21 20 20 20 19 19 19 18 18 17 17 16 16 15 15 15 15 15 15 15 15 15 15 15 15 16 16 16 16 16 17 17 17 17 17 17 18
19 19 20 21 22 22 22 22 21 21 21 21 21 20 20 20 19 19 19 18 18 17 16 16 15 15 15 15 15 15 15 15 15 15 15 15 15 15 15 16 16 16 16 16 17 17 17 17 17
19 19 19 20 21 21 21 21 21 21 21 21 21 20 20 20 20 19 18 18 17 17 16 16 15 15 15 15 14 14 14 14 15 15 15 15 15 15 15 15 16 16 16 16 16 16 17 17 17
19 19 19 19 20 21 21 21 20 21 21 21 21 21 20 20 19 19 18 18 17 17 16 16 15 15 15 14 14 14 14 14 14 14 15 15 15 15 15 15 15 15 16 16 16 16 16 17 17
19 19 19 19 19 20 20 20 20 21 21 21 21 20 20 20 19 19 18 18 17 16 16 15 15 15 15 14 14 14 14 14 14 14 14 14 14 14 14 15 15 15 15 16 16 16 16 16 17
18 18 19 19 20 20 20 20 20 21 21 21 21 20 20 19 19 18 18 18 17 16 16 15 15 15 14 14 14 14 14 14 14 14 14 14 14 14 14 14 15 15 15 15 15 16 16 16 16
19 19 19 20 20 20 19 19 19 20 21 21 21 20 20 19 19 18 18 17 17 16 16 15 15 14 14 14 14 14 14 13 13 13 13 14 14 14 14 14 14 15 15 15 15 15 15 16 16
20 20 20 21 22 21 20 20 19 20 20 20 21 20 20 19 19 18 18 17 17 16 16 15 15 14 14 14 13 13 13 13 13 13 13 13 13 13 14 14 14 14 14 15 15 15 15 15 16
20 20 20 21 22 21 20 20 19 19 20 21 21 20 20 19 18 18 17 17 17 16 16 15 14 14 14 13 13 13 13 13 13 13 13 13 13 13 13 13 14 14 14 14 14 15 15 15 15
21 20 21 21 22 22 21 20 20 19 20 21 21 21 20 19 18 18 17 17 17 16 15 15 14 14 13 13 13 13 13 13 13 13 13 13 13 13 13 13 13 13 13 14 14 14 14 15 15
21 22 22 22 21 19 21 18 19 19 19 19 20 20 20 19 19 18 18 17 17 16 15 15 14 14 13 13 13 13 13 13 12 12 12 13 13 12 13 13 13 13 13 13 13 13 14 14 14
21 23 22 22 21 19 19 18 18 19 19 18 19 20 20 19 19 18 18 17 17 16 15 15 14 14 13 13 13 13 13 13 12 12 12 12 12 12 12 12 13 13 13 13 13 13 13 13 14
22 22 20 17 17 18 19 18 18 17 18 19 19 20 20 19 19 18 18 17 17 16 15 15 14 14 14 13 13 13 13 12 12 12 12 12 12 12 12 12 12 12 13 13 13 13 13 13 13
21 18 18 18 17 18 19 19 18 19 19 19 19 20 20 20 19 18 18 17 17 16 16 15 15 14 14 14 13 13 13 13 12 12 12 12 12 12 12 12 12 12 12 12 12 12 13 13 13
21 18 18 19 18 18 20 19 19 20 20 21 21 21 20 20 19 19 18 17 17 16 16 15 15 15 14 14 14 13 13 13 12 12 12 12 12 12 12 12 12 12 12 12 12 12 12 12 13
21 19 18 17 18 18 18 19 20 20 19 19 20 20 20 20 19 19 18 18 17 17 16 16 15 15 15 14 14 14 13 13 13 12 12 12 12 12 12 12 12 12 12 12 12 12 12 12 12
21 19 16 18 18 18 19 19 17 19 18 18 18 19 20 20 19 19 18 18 17 17 16 16 16 15 15 15 14 14 13 13 13 13 12 12 12 12 12 12 12 12 12 11 11 12 12 12 12
22 21 17 15 16 17 18 18 18 18 18 18 18 20 20 20 20 19 19 18 17 17 17 16 16 16 15 15 15 14 14 13 13 13 12 12 12 12 12 11 11 11 11 11 11 11 11 11 12
21 20 17 17 18 16 16 17 19 18 18 19 20 21 21 20 20 19 19 18 18 17 17 17 16 16 16 15 15 14 14 13 13 13 13 12 12 12 11 11 11 11 11 11 11 11 11 11 11
Wind_Speed
12 8 3 2 2 2 1 3 1 1 4 5 10 10 8 6 4 5 2 3 9 8 9 11 11 10 9 7 6 5 4 4 3 3 3 2 2 2 2 2 1 1 1 2 2 2 2 2 2
8 5 2 2 2 1 2 3 1 3 8 8 9 8 7 6 5 4 2 5 9 9 9 9 10 9 8 7 6 5 4 4 3 3 3 3 3 3 3 2 2 2 2 2 1 1 0 1 1
6 3 2 2 1 3 2 2 1 5 8 5 6 6 5 3 3 2 2 7 7 7 8 9 9 8 7 5 5 4 4 4 4 4 5 5 5 5 5 5 4 4 3 3 3 2 2 2 2
4 2 2 3 2 2 4 4 1 5 6 7 6 6 4 3 2 4 5 7 7 5 6 8 8 7 6 4 4 4 4 4 4 5 6 6 7 7 7 7 6 6 5 5 4 4 4 4 3
2 3 3 2 0 2 2 2 2 5 4 5 6 6 3 1 5 7 7 7 7 5 6 6 7 6 5 4 4 4 4 4 5 6 6 7 8 8 9 9 9 8 8 7 6 6 6 5 5
3 3 3 2 2 3 2 2 5 8 7 6 6 6 2 3 5 6 7 6 5 5 5 4 4 4 4 4 3 3 4 4 6 6 7 8 8 9 10 10 11 10 10 9 8 8 7 7 7
3 3 3 4 3 3 3 2 5 7 7 5 6 6 3 3 5 6 6 5 4 4 3 2 1 1 3 4 4 4 5 6 7 7 8 8 9 10 11 12 12 12 11 11 10 10 9 8 8
4 4 2 2 4 4 3 2 5 7 6 4 4 7 5 5 6 5 4 3 3 2 2 2 0 1 3 5 5 6 6 7 8 8 9 9 10 10 11 12 12 12 12 12 12 11 11 10 10
4 4 1 3 4 4 3 3 4 5 7 4 4 5 6 7 7 6 3 2 2 2 2 1 1 1 2 3 4 6 7 8 9 9 9 9 9 9 9 10 11 12 12 12 12 12 12 11 10
4 2 3 4 4 3 3 4 7 5 6 4 5 4 7 7 7 6 5 3 3 2 1 2 1 1 2 3 4 5 6 8 8 8 8 8 8 8 9 9 10 10 11 12 12 12 11 10 7
4 2 3 7 5 2 2 3 5 10 4 7 9 9 7 7 6 6 5 5 4 3 3 2 2 2 3 2 4 4 5 6 7 8 8 7 7 7 6 6 7 7 8 8 9 8 6 5 5
4 2 4 6 5 2 3 4 4 6 7 10 11 10 8 8 7 7 6 5 5 5 4 3 3 3 3 3 3 3 3 4 4 6 7 4 3 3 3 3 4 4 4 4 4 3 4 5 5
3 4 3 5 6 3 2 3 5 5 9 11 10 10 9 9 7 7 7 7 7 5 3 2 3 4 3 3 3 4 3 3 4 4 6 4 2 3 3 3 3 4 4 3 3 3 4 4 4
5 3 1 5 6 3 2 2 6 6 10 11 11 10 10 9 9 8 8 8 6 5 2 1 2 3 3 3 4 3 4 5 5 4 5 5 2 2 2 3 3 3 3 4 4 4 4 4 3
3 3 1 2 3 2 1 3 6 10 11 11 10 9 9 8 9 10 9 8 7 4 2 1 2 3 4 5 5 4 4 5 4 4 7 7 5 3 2 2 2 3 3 3 3 4 3 3 4
2 2 1 4 3 3 3 7 7 10 11 10 9 9 8 7 9 9 9 8 6 4 3 2 4 4 5 5 5 3 4 4 4 5 7 8 8 6 3 3 3 3 2 1 2 3 3 4 4
1 1 3 4 7 5 5 7 5 9 10 10 9 9 8 8 8 8 8 8 7 5 4 3 4 4 4 5 4 4 4 4 4 5 6 7 8 8 4 3 3 3 1 1 2 2 3 3 4
5 4 4 6 6 8 7 8 6 9 10 10 9 8 9 10 9 8 7 7 6 5 5 4 4 4 4 4 4 5 5 5 4 4 5 7 7 8 5 3 4 4 2 2 2 1 2 2 3
7 5 4 5 6 8 9 9 9 11 9 9 7 8 9 9 7 7 7 7 6 5 6 5 5 3 3 3 3 3 4 4 4 4 6 7 7 7 5 5 5 5 3 3 2 1 1 1 1
5 3 3 4 5 7 7 8 8 11 12 10 9 9 10 9 7 7 6 6 6 6 6 5 4 3 3 1 1 1 1 2 2 4 5 6 6 6 5 5 5 5 4 5 4 2 1 1 0
4 6 6 5 2 2 2 5 2 5 6 6 7 9 11 13 12 9 8 7 7 6 6 6 4 3 2 2 2 3 3 4 4 5 5 5 5 5 5 5 5 5 4 4 4 2 1 1 1
5 7 6 4 2 3 3 2 5 5 6 8 8 9 11 11 10 10 9 8 7 6 6 6 4 3 1 2 2 2 1 2 3 3 4 5 5 4 5 5 5 5 3 4 4 3 1 0 1
8 6 4 2 3 2 1 4 6 3 7 9 9 9 10 11 12 11 10 9 8 7 6 5 4 3 1 1 2 1 1 1 2 3 5 5 5 4 4 4 4 5 4 4 4 4 3 1 0
5 4 6 6 5 2 5 6 6 6 9 8 7 8 10 10 10 10 8 8 7 6 5 5 4 3 2 1 1 2 1 0 2 3 4 4 4 4 5 4 5 5 4 4 4 3 3 2 1
5 6 5 5 4 6 3 5 8 7 7 9 10 9 10 10 10 10 9 8 8 7 6 5 5 4 3 2 1 2 2 2 1 1 2 3 3 3 5 5 5 4 4 4 3 3 3 3 3
5 9 7 4 4 5 2 4 5 3 5 7 9 10 10 10 10 11 10 9 8 9 7 6 6 4 4 4 3 3 3 2 1 1 2 2 2 3 4 5 5 5 5 5 4 3 3 3 4
5 4 7 6 2 2 4 2 4 1 3 5 7 9 10 11 10 10 10 9 9 9 8 8 7 5 5 5 4 4 3 3 2 2 2 2 3 3 4 4 5 5 4 4 4 4 4 4 4
6 7 6 4 2 2 3 4 6 9 9 8 8 10 10 10 9 10 9 9 9 9 8 7 7 6 5 5 5 4 4 4 3 2 3 3 4 4 4 4 4 4 4 4 4 3 4 5 5
3 3 5 4 5 5 3 6 7 12 10 10 10 10 10 10 10 10 9 9 8 7 7 6 6 5 5 6 5 3 3 3 2 2 2 2 2 3 3 3 3 3 3 3 3 4 5 6 6
6 6 7 4 3 5 4 7 6 10 10 10 10 9 9 10 9 9 9 8 7 7 7 6 6 6 7 6 5 4 3 3 3 3 2 2 1 2 3 2 3 2 2 2 3 4 4 5 6
Wind_Direction
191 166 123 87 50 33 317 284 243 64 65 62 74 80 83 61 75 117 266 153 140 142 149 149 146 144 144 145 145 147 148 151 157 163 165 167 166 154 140 130 113 107 111 104 92 72 61 58 56
168 149 122 73 88 81 294 288 346 99 136 121 75 69 73 70 68 87 49 122 133 139 147 151 148 147 150 153 156 161 168 177 188 200 207 209 213 212 206 203 202 207 191 175 171 155 38 21 11
164 156 128 99 126 175 215 245 120 87 114 99 79 53 63 58 70 95 137 130 126 131 142 149 147 146 150 157 166 176 188 198 208 217 224 227 229 230 227 224 219 220 221 216 211 213 238 262 277
154 96 51 72 100 224 209 229 158 100 76 64 101 76 61 26 96 132 130 127 126 127 138 146 144 147 150 159 176 190 203 215 226 234 235 235 234 234 231 229 226 224 226 227 224 221 229 245 260
95 92 75 74 259 274 245 216 124 94 80 74 94 92 80 67 122 134 134 134 138 145 153 155 150 152 161 177 199 213 224 235 245 251 251 248 243 239 237 233 230 228 226 227 226 224 230 239 249
77 80 98 163 214 276 281 149 104 96 106 112 100 105 122 159 145 150 149 151 150 152 159 164 168 176 189 209 225 242 249 254 259 263 263 259 255 248 242 237 232 230 228 227 225 223 227 237 245
133 113 144 173 192 236 220 134 106 107 102 103 117 112 149 183 177 154 150 148 144 142 142 160 205 261 258 260 263 269 270 275 275 274 272 270 267 261 252 243 236 232 230 229 226 223 225 232 240
133 102 122 197 203 219 212 124 118 112 98 86 105 133 170 197 172 138 125 122 131 140 138 149 185 293 296 288 282 280 277 280 281 279 275 275 273 271 265 256 245 237 234 232 229 226 226 230 236
88 80 221 226 209 226 207 122 85 70 88 63 75 138 163 155 134 116 107 87 85 87 91 110 73 6 332 309 299 294 291 292 290 286 280 278 273 273 273 267 255 244 240 235 232 231 230 232 236
81 103 260 266 234 216 194 145 133 102 92 88 91 107 126 126 128 131 129 119 112 91 67 64 50 17 1 343 326 306 298 294 289 282 278 274 268 265 266 266 262 252 244 241 235 235 236 236 231
98 136 308 293 264 239 170 144 123 128 141 169 162 157 146 134 131 132 136 135 135 121 89 67 49 26 16 346 336 322 313 305 298 290 281 273 271 269 271 267 265 262 252 242 237 233 231 225 215
111 158 198 265 287 286 184 138 100 149 176 170 163 155 146 141 143 142 134 124 110 96 90 58 48 35 20 12 342 330 321 311 302 299 302 288 275 272 268 257 255 249 240 223 224 218 226 228 219
139 187 239 304 327 341 82 125 130 148 147 150 149 142 147 151 144 133 122 112 107 100 94 50 60 48 21 11 340 351 332 320 320 321 326 316 285 284 280 267 255 248 235 221 217 216 222 227 223
173 168 343 332 335 345 88 145 132 176 158 152 152 157 166 162 144 125 117 115 118 118 102 77 77 52 33 14 349 334 340 345 354 353 348 349 336 313 302 293 273 257 240 229 219 218 219 226 225
128 104 56 287 276 280 106 236 207 177 167 164 169 176 180 164 140 140 142 138 139 136 110 86 97 57 34 11 352 352 353 2 2 2 9 10 7 351 335 335 309 282 262 235 226 229 219 224 224
101 92 202 234 223 242 169 244 242 176 171 178 187 188 179 155 145 151 148 143 141 127 94 46 61 58 38 22 6 355 359 6 4 8 10 11 11 7 359 350 328 310 303 258 234 224 227 231 230
79 173 240 251 208 209 197 239 236 186 180 190 196 191 175 152 153 160 153 150 145 129 101 80 70 62 43 28 14 4 5 7 6 10 11 11 14 15 12 353 333 336 331 311 280 229 214 228 239
192 201 222 230 209 200 220 241 217 201 193 201 201 189 175 164 170 166 157 152 142 119 98 93 72 62 44 27 17 10 7 2 3 5 6 10 12 16 17 4 352 352 0 347 325 273 228 225 236
174 184 217 231 202 189 224 239 217 205 202 202 201 186 174 169 171 161 153 145 130 102 90 89 84 60 50 35 17 10 355 345 350 352 1 7 11 16 21 13 4 4 7 354 341 311 269 260 223
155 198 234 265 210 191 228 250 226 198 201 196 189 179 164 157 157 156 150 139 125 114 107 106 104 83 66 57 340 327 317 316 323 338 354 3 11 15 23 18 9 7 9 9 4 13 9 325 155
183 193 198 219 277 231 195 316 235 199 198 195 184 170 161 165 165 164 154 143 132 127 131 128 127 114 86 46 25 13 8 357 355 350 347 346 359 10 16 13 13 12 20 7 356 9 36 325 301
205 214 202 200 143 275 162 241 274 202 187 199 192 168 166 165 162 163 158 151 150 153 148 142 142 139 118 70 58 48 28 346 309 312 327 344 358 1 9 12 11 9 11 6 351 13 359 50 305
203 210 198 182 146 334 321 152 278 176 198 216 206 183 172 169 166 168 166 163 162 160 155 155 153 162 178 116 102 82 37 301 309 339 353 355 352 349 353 2 5 2 356 353 354 357 1 357 272
165 71 42 49 68 322 233 161 246 210 206 203 200 185 174 172 169 168 165 158 158 160 155 157 162 190 216 192 120 126 130 52 22 2 350 345 339 332 337 345 352 349 349 348 348 352 356 354 338
88 82 32 0 7 261 236 162 236 230 201 178 178 181 177 171 167 166 166 168 169 170 171 172 175 197 216 210 185 161 163 162 121 320 323 338 334 318 320 335 337 336 334 341 355 5 356 351 350
160 132 152 196 227 283 328 213 255 251 171 158 165 172 173 176 176 176 179 179 181 185 186 189 196 206 209 205 204 192 172 172 203 235 253 294 289 284 301 326 336 338 342 356 6 10 354 357 347
131 151 170 146 207 260 296 332 338 343 175 172 175 174 185 188 186 185 185 183 185 190 196 200 202 208 209 206 196 199 206 208 228 253 267 286 295 298 322 336 340 347 360 8 11 9 358 356 351
143 145 98 124 168 278 299 225 221 216 219 214 203 197 202 197 191 188 187 189 192 198 205 206 202 204 209 207 204 201 216 229 235 245 277 290 307 322 337 344 346 354 5 10 16 3 355 0 346
166 148 116 125 158 162 227 256 223 199 200 200 207 207 199 195 193 191 192 195 196 199 206 209 211 206 206 208 210 213 230 235 220 224 254 266 299 322 335 340 350 359 3 4 12 358 359 357 343
179 181 148 157 217 172 188 262 264 188 189 188 198 203 197 193 190 189 190 191 195 203 212 213 210 206 208 207 207 213 217 207 206 218 236 240 299 325 339 358 5 357 357 356 2 351 356 349 336
Height
1535 1536 1537 1537 1538 1543 1542 1534 1527 1524 1524 1525 1524 1525 1529 1533 1536 1543 1539 1537 1538 1538 1539 1540 1540 1541 1541 1541 1540 1540 1540 1540 1540 1539 1539 1539 1539 1539 1538 1538 1538 1538 1538 1538 1538 1538 1538 1538 1538
1535 1536 1537 1537 1542 1550 1544 1532 1527 1523 1524 1525 1526 1528 1530 1534 1536 1537 1537 1537 1538 1539 1539 1540 1540 1540 1540 1540 1539 1539 1539 1539 1538 1538 1538 1538 1537 1537 1537 1537 1537 1536 1536 1536 1536 1537 1537 1537 1537
1534 1535 1536 1537 1542 1547 1542 1531 1526 1523 1524 1524 1528 1531 1533 1536 1537 1537 1538 1538 1538 1539 1539 1539 1539 1539 1539 1539 1538 1538 1537 1537 1537 1537 1536 1536 1536 1536 1535 1535 1535 1535 1535 1535 1535 1535 1535 1536 1536
1534 1536 1536 1540 1542 1537 1533 1528 1525 1524 1525 1526 1528 1533 1536 1538 1538 1538 1538 1538 1539 1539 1539 1539 1538 1538 1538 1537 1537 1536 1536 1535 1535 1535 1534 1534 1534 1534 1534 1533 1533 1533 1533 1533 1533 1534 1534 1534 1535
1534 1534 1538 1544 1541 1534 1529 1526 1525 1524 1526 1529 1530 1535 1538 1539 1538 1539 1539 1539 1539 1539 1539 1538 1538 1537 1536 1536 1535 1534 1534 1533 1533 1532 1532 1532 1532 1532 1531 1531 1531 1531 1531 1531 1532 1532 1532 1532 1533
1533 1533 1543 1547 1542 1533 1529 1526 1525 1525 1528 1530 1531 1535 1539 1539 1539 1539 1540 1540 1539 1539 1538 1538 1537 1536 1535 1534 1533 1532 1531 1531 1530 1530 1529 1529 1529 1529 1529 1529 1529 1529 1529 1529 1530 1530 1530 1531 1531
1532 1535 1540 1541 1540 1535 1528 1526 1526 1527 1528 1530 1531 1535 1538 1539 1539 1539 1540 1540 1539 1539 1538 1537 1536 1535 1534 1532 1531 1530 1529 1528 1527 1527 1526 1526 1526 1526 1526 1526 1527 1527 1527 1527 1527 1528 1528 1529 1529
1530 1534 1539 1540 1538 1533 1526 1525 1526 1526 1529 1531 1532 1534 1537 1538 1539 1539 1540 1539 1539 1538 1537 1536 1535 1534 1532 1531 1529 1528 1527 1526 1525 1524 1523 1523 1523 1523 1523 1523 1524 1524 1524 1525 1525 1526 1526 1527 1527
1530 1538 1542 1538 1535 1530 1525 1526 1528 1528 1529 1531 1532 1533 1535 1537 1538 1539 1539 1539 1539 1538 1537 1535 1534 1532 1531 1529 1527 1526 1525 1523 1522 1521 1520 1520 1520 1520 1520 1520 1520 1521 1521 1522 1522 1523 1524 1525 1525
1530 1540 1538 1532 1529 1526 1525 1525 1527 1530 1531 1533 1534 1535 1536 1537 1538 1538 1538 1538 1537 1537 1536 1534 1532 1531 1529 1527 1526 1524 1523 1521 1520 1519 1518 1517 1517 1517 1517 1517 1517 1518 1518 1519 1519 1520 1522 1522 1523
1530 1536 1533 1529 1527 1526 1525 1525 1526 1528 1532 1532 1532 1534 1535 1536 1537 1537 1537 1537 1536 1535 1534 1533 1531 1529 1527 1525 1523 1522 1520 1519 1518 1517 1516 1515 1514 1514 1513 1514 1514 1515 1515 1516 1517 1518 1519 1520 1521
1530 1531 1530 1528 1526 1526 1525 1525 1526 1526 1527 1529 1531 1532 1534 1535 1536 1536 1536 1536 1535 1534 1533 1531 1529 1527 1525 1523 1522 1520 1518 1517 1515 1514 1513 1512 1511 1511 1510 1510 1511 1512 1512 1513 1514 1515 1516 1517 1518
1529 1530 1530 1528 1527 1526 1525 1525 1525 1526 1526 1528 1530 1532 1533 1534 1534 1535 1535 1534 1534 1533 1531 1530 1528 1526 1524 1522 1520 1518 1517 1515 1514 1513 1511 1510 1509 1508 1508 1508 1508 1508 1509 1510 1511 1511 1512 1514 1515
1527 1527 1529 1528 1527 1526 1525 1526 1525 1526 1527 1528 1529 1530 1531 1532 1533 1533 1533 1533 1532 1531 1530 1528 1527 1525 1523 1521 1519 1517 1515 1514 1512 1511 1510 1508 1507 1506 1505 1505 1505 1505 1506 1506 1507 1508 1509 1510 1512
1527 1528 1529 1529 1527 1526 1526 1527 1523 1523 1525 1527 1528 1529 1530 1531 1531 1531 1532 1532 1531 1530 1528 1527 1526 1524 1522 1520 1518 1516 1514 1512 1511 1509 1508 1507 1506 1505 1504 1503 1503 1503 1503 1504 1504 1505 1506 1507 1509
1528 1531 1535 1529 1527 1525 1529 1531 1520 1522 1523 1525 1526 1527 1528 1530 1530 1530 1531 1530 1530 1528 1527 1526 1525 1523 1522 1519 1517 1515 1513 1512 1510 1508 1507 1505 1504 1503 1502 1501 1501 1500 1500 1501 1501 1502 1503 1504 1506
1532 1537 1536 1529 1523 1524 1526 1526 1518 1520 1521 1523 1524 1525 1526 1528 1529 1529 1530 1529 1529 1527 1526 1525 1524 1523 1521 1519 1517 1515 1513 1511 1509 1508 1506 1504 1502 1501 1500 1499 1499 1498 1498 1498 1499 1499 1500 1501 1502
1534 1534 1531 1527 1520 1522 1523 1522 1518 1519 1520 1520 1521 1523 1524 1526 1527 1528 1529 1528 1527 1526 1525 1525 1523 1522 1520 1518 1517 1515 1513 1511 1509 1507 1505 1503 1502 1500 1499 1498 1497 1496 1496 1496 1496 1497 1498 1498 1499
1519 1524 1525 1519 1513 1518 1519 1518 1516 1516 1518 1519 1519 1520 1522 1524 1526 1527 1528 1527 1526 1526 1525 1524 1523 1521 1519 1517 1515 1514 1512 1511 1509 1507 1505 1503 1502 1500 1498 1497 1496 1495 1494 1494 1494 1495 1495 1496 1497
1517 1523 1522 1516 1510 1515 1517 1516 1512 1513 1514 1515 1516 1518 1520 1523 1525 1526 1526 1526 1525 1525 1524 1523 1522 1520 1519 1517 1515 1514 1513 1511 1510 1508 1506 1504 1502 1500 1498 1496 1495 1494 1493 1493 1493 1493 1493 1494 1495
1517 1519 1518 1516 1511 1511 1516 1520 1514 1512 1513 1514 1515 1515 1517 1519 1521 1523 1524 1524 1524 1524 1523 1522 1521 1520 1518 1517 1515 1514 1513 1511 1510 1508 1506 1504 1502 1500 1498 1496 1495 1494 1493 1492 1492 1492 1492 1493 1493
1517 1508 1509 1511 1520 1526 1519 1535 1520 1514 1513 1513 1513 1514 1515 1518 1519 1521 1522 1522 1523 1523 1522 1521 1521 1519 1518 1516 1515 1514 1512 1511 1509 1508 1506 1505 1503 1501 1499 1497 1495 1493 1492 1491 1491 1490 1491 1491 1492
1508 1502 1506 1510 1517 1525 1523 1532 1527 1515 1516 1512 1511 1512 1514 1515 1517 1519 1520 1521 1521 1521 1521 1521 1520 1519 1518 1516 1515 1514 1512 1511 1509 1508 1506 1504 1503 1501 1499 1497 1495 1493 1492 1491 1490 1490 1489 1489 1490
1500 1506 1512 1520 1527 1537 1524 1531 1527 1519 1511 1508 1508 1510 1512 1514 1516 1517 1518 1519 1520 1520 1520 1520 1519 1518 1517 1516 1515 1513 1512 1510 1509 1507 1506 1504 1502 1501 1499 1497 1495 1493 1492 1491 1490 1489 1489 1488 1488
1505 1521 1538 1538 1547 1539 1520 1524 1521 1506 1502 1503 1505 1508 1510 1512 1514 1515 1516 1518 1518 1519 1519 1519 1518 1518 1517 1516 1514 1513 1511 1510 1508 1507 1505 1504 1502 1500 1499 1497 1495 1494 1492 1491 1489 1488 1488 1487 1487
1507 1518 1539 1545 1545 1536 1519 1523 1514 1501 1500 1501 1503 1506 1508 1510 1511 1513 1514 1516 1517 1517 1518 1518 1517 1517 1516 1515 1514 1513 1511 1510 1508 1507 1505 1504 1502 1500 1499 1497 1495 1494 1492 1490 1489 1488 1487 1486 1485
1506 1515 1517 1531 1532 1536 1530 1518 1509 1503 1503 1503 1504 1505 1506 1507 1509 1511 1512 1514 1515 1516 1516 1516 1516 1516 1515 1514 1513 1512 1511 1509 1508 1507 1505 1504 1502 1500 1499 1497 1495 1493 1492 1490 1488 1487 1485 1484 1483
1500 1507 1522 1529 1538 1542 1529 1524 1522 1509 1506 1503 1503 1503 1504 1506 1507 1509 1510 1512 1513 1514 1515 1515 1515 1515 1514 1513 1512 1511 1510 1509 1507 1506 1505 1503 1501 1500 1498 1496 1494 1493 1491 1489 1488 1486 1484 1483 1482
1503 1506 1517 1530 1533 1542 1538 1528 1501 1500 1499 1500 1500 1500 1501 1503 1505 1506 1508 1510 1511 1512 1513 1513 1513 1513 1513 1512 1511 1510 1509 1508 1506 1505 1504 1502 1500 1499 1497 1495 1493 1492 1490 1488 1486 1484 1483 1481 1480
1498 1502 1514 1527 1527 1532 1538 1526 1492 1492 1493 1495 1496 1498 1499 1501 1503 1504 1506 1508 1509 1510 1511 1512 1512 1512 1511 1511 1510 1509 1508 1507 1505 1504 1502 1501 1499 1497 1496 1494 1492 1490 1488 1486 1485 1483 1481 1479 1478